Wind_Speed
16 20 23 23 21 17 15 13 12 14 15 19 20 20 20 16 16 15 15 12 9 12 13 13 17 17 17 20 19 18 18 17 16 19 24 19 17 8 17 16 14 10 11
10 17 20 18 18 17 15 15 15 17 20 21 19 14 13 13 14 16 18 16 15 13 13 14 15 18 19 18 18 16 15 12 14 11 13 4 7 6 31 6 9 9 13
12 12 16 16 16 16 14 14 15 18 19 20 18 17 14 14 18 19 18 17 15 14 16 13 16 16 17 18 17 15 12 10 15 11 4 3 2 12 6 24 8 15 14
9 14 14 14 14 14 12 13 15 17 17 16 17 18 17 15 15 16 16 17 17 18 14 17 16 17 18 17 16 13 13 14 13 10 4 8 11 3 5 6 13 16 16
7 10 15 15 12 12 12 12 14 15 14 14 15 15 15 14 15 14 15 16 18 17 17 17 16 18 17 17 17 14 15 13 11 10 13 18 18 16 10 9 10 14 20
8 13 15 12 11 11 12 12 11 11 11 12 14 15 15 14 15 16 18 18 20 21 17 18 17 17 17 17 19 17 17 15 12 14 19 22 14 12 12 6 11 13 18
7 9 12 9 10 10 9 9 8 9 9 10 13 14 14 14 15 16 18 19 21 22 20 20 20 19 19 17 19 20 20 16 15 21 28 28 23 22 19 18 14 10 17
6 8 10 9 9 8 9 8 7 8 8 9 11 13 12 14 18 17 18 19 21 22 22 23 22 21 20 19 19 21 17 15 22 29 32 28 24 20 20 18 14 7 5
7 8 11 9 8 8 6 6 6 7 7 9 11 14 13 15 19 19 20 21 22 23 24 24 23 22 22 20 20 18 17 25 30 32 29 25 23 20 19 20 21 13 5
7 9 11 8 7 7 8 7 6 7 8 10 13 14 15 16 19 21 22 22 24 25 25 24 22 21 23 19 17 18 26 30 31 27 27 24 22 21 19 19 20 19 13
8 8 10 7 7 8 8 7 7 8 8 10 13 16 15 18 20 22 23 23 23 24 23 21 22 23 19 15 18 26 28 29 28 28 24 24 21 21 18 17 18 19 16
7 11 10 8 8 8 6 8 8 8 9 11 15 17 16 20 22 22 23 21 24 22 22 23 21 20 16 19 24 29 30 28 26 27 25 22 21 20 19 19 20 21 21
8 10 8 7 5 7 7 8 8 9 9 11 15 17 18 20 23 24 23 25 23 22 23 20 22 22 20 22 24 27 31 31 26 26 24 24 22 22 21 20 16 16 20
9 7 7 5 8 7 9 8 9 9 10 11 16 18 18 20 23 25 26 25 23 22 22 22 23 25 24 18 27 29 28 27 25 25 24 23 21 21 24 16 19 17 16
9 7 6 6 8 8 10 9 9 10 10 12 16 18 14 19 23 27 26 27 27 24 23 25 27 29 26 21 28 31 27 26 26 26 25 23 21 21 21 22 23 22 18
10 7 7 8 8 8 10 9 9 9 10 14 16 18 13 18 23 26 26 28 31 27 25 27 28 30 28 25 29 31 29 28 25 26 26 25 22 24 25 25 24 24 23
7 6 9 8 6 10 10 9 9 10 12 13 16 17 13 17 21 24 25 28 32 28 27 28 30 31 31 28 33 33 31 25 25 25 27 28 25 27 29 30 25 23 23
7 11 10 10 13 12 10 9 11 14 14 15 15 17 14 17 20 24 25 27 32 28 28 29 31 30 30 30 34 34 29 24 24 25 25 26 27 31 31 30 23 21 18
16 13 11 13 13 10 9 11 12 13 15 16 15 15 14 19 20 23 25 26 32 28 29 29 31 30 32 30 34 34 30 27 27 24 26 25 30 32 29 28 23 21 15
17 16 13 14 11 9 9 11 11 12 15 15 16 15 15 18 21 22 24 25 31 28 29 28 31 28 30 31 35 34 30 28 27 25 27 27 30 31 28 27 23 18 17
18 15 15 13 10 7 9 11 9 11 12 13 16 16 17 18 20 20 22 27 30 30 28 26 28 28 30 33 35 35 34 31 26 25 28 31 32 30 28 27 27 23 17
19 18 16 12 9 10 10 14 13 9 11 14 18 17 18 19 19 20 20 28 31 26 27 27 28 29 32 34 37 35 35 33 29 28 30 32 32 31 29 30 29 27 24
19 16 16 14 11 10 10 12 11 9 9 13 18 17 17 19 20 21 20 29 29 25 26 26 28 31 33 37 38 35 36 35 35 32 30 31 32 31 34 33 31 31 28
19 16 15 14 12 11 10 11 9 9 11 13 17 17 17 19 19 20 19 25 29 27 26 26 26 28 32 38 38 36 36 37 37 37 34 32 30 30 31 35 36 31 29
16 14 15 13 11 10 11 12 13 9 12 14 17 16 17 18 19 19 19 21 22 26 27 26 26 28 30 36 36 35 35 38 36 31 32 35 37 35 36 35 33 31 31
18 17 15 15 12 9 10 12 13 12 13 16 18 16 18 19 19 19 19 18 18 21 26 25 27 29 29 34 37 36 33 37 37 35 35 34 34 33 32 32 33 31 32
Wind_Direction
98 90 95 106 106 97 86 72 60 48 39 35 33 40 49 40 32 33 25 11 337 331 341 354 352 354 351 351 350 344 344 345 346 343 341 339 339 197 340 345 348 353 6
90 89 96 94 90 85 76 67 63 52 45 37 34 31 32 33 34 25 23 23 23 16 13 349 352 350 347 349 351 347 342 334 347 342 332 332 339 306 324 300 339 344 338
116 110 100 101 87 74 68 67 61 51 43 34 29 28 26 21 14 12 16 20 19 10 357 356 353 354 352 348 348 346 344 333 339 339 326 335 336 323 312 314 302 322 318
114 119 114 101 88 82 74 69 58 48 40 32 31 28 26 18 9 7 7 2 359 354 358 354 353 350 348 346 345 341 341 336 329 335 321 283 270 263 308 289 289 307 307
149 125 129 112 96 85 71 68 53 45 36 32 28 27 21 14 5 3 358 358 357 356 352 352 350 349 346 345 339 326 327 329 323 312 305 305 287 278 254 285 294 286 300
125 130 123 113 101 80 70 53 48 45 37 30 30 24 15 9 4 1 357 354 354 355 354 349 343 343 343 336 337 323 317 308 303 307 308 300 283 276 261 260 275 286 288
144 133 130 125 91 73 67 51 55 48 35 32 28 21 13 8 4 358 355 351 349 349 348 340 336 331 327 323 326 324 317 302 300 310 311 307 290 271 268 270 273 273 286
138 138 148 125 91 80 74 61 57 35 28 30 25 14 9 10 5 358 353 349 341 340 339 335 330 326 318 315 317 322 320 312 310 314 317 311 302 290 273 258 262 283 250
143 154 149 119 94 94 69 79 48 31 31 34 19 12 10 9 5 359 352 349 346 341 338 335 330 326 320 315 316 319 319 320 320 322 318 312 304 299 286 274 263 266 277
146 153 142 118 106 86 85 78 52 47 45 31 20 16 9 7 3 359 354 349 346 343 342 339 337 335 328 320 323 327 326 327 325 318 315 315 311 307 299 282 277 268 257
157 144 132 110 83 94 106 76 59 47 52 31 24 16 14 8 3 358 355 351 349 350 348 350 343 337 336 337 336 334 333 327 321 321 319 315 318 309 300 295 281 271 259
131 132 126 115 90 95 82 67 55 62 44 35 27 20 15 10 5 0 357 358 354 353 355 352 352 352 346 341 341 339 334 326 322 320 321 312 314 308 302 294 279 264 255
116 123 128 106 74 88 85 67 69 58 45 32 27 19 13 11 5 0 359 355 356 357 357 2 1 355 336 338 343 337 334 329 322 322 319 318 318 309 306 293 290 292 255
125 135 126 96 97 67 101 81 71 58 42 35 25 18 15 13 9 5 3 6 3 1 2 1 357 355 348 333 339 336 331 326 322 326 324 323 317 310 308 307 301 292 272
138 143 121 100 67 87 91 86 72 50 40 36 23 16 17 14 13 13 15 14 11 9 8 4 2 2 358 348 342 340 338 330 325 331 330 325 318 310 306 300 294 287 265
144 127 110 108 73 85 100 90 62 47 41 30 19 13 11 13 15 16 16 15 12 9 10 8 5 3 357 348 344 345 341 335 329 326 329 334 326 326 313 306 298 282 264
118 114 120 103 91 111 109 81 58 37 34 31 17 13 8 11 13 13 12 11 9 9 9 8 5 1 358 348 349 348 344 337 332 330 332 330 329 329 325 320 308 289 272
118 124 125 110 116 118 101 79 57 52 35 18 13 11 12 9 9 10 7 6 5 10 10 8 4 360 356 352 351 351 347 340 338 339 334 335 335 339 334 333 324 312 293
132 129 123 128 128 112 92 76 60 38 25 18 19 16 15 9 6 4 3 6 6 11 9 5 0 0 351 355 356 355 351 344 344 340 340 343 342 342 344 343 335 337 327
126 123 128 130 118 98 86 67 46 27 21 26 23 19 14 8 4 3 6 10 10 12 9 1 3 357 355 358 359 0 356 349 345 343 344 347 346 346 350 350 344 340 339
129 129 129 116 102 85 71 44 31 37 31 31 21 22 19 13 9 10 10 11 11 16 4 360 359 360 1 0 2 2 1 356 348 347 345 345 348 351 355 360 357 354 11
126 126 117 108 88 80 63 61 52 58 42 35 29 26 22 21 18 13 16 15 17 9 4 0 0 2 2 3 2 3 2 360 357 350 347 350 353 356 360 2 5 16 18
132 128 119 110 88 69 69 57 50 46 44 35 30 25 26 26 25 22 26 23 21 13 8 5 1 359 1 2 1 360 2 3 1 357 356 359 0 2 7 3 4 12 6
137 131 122 106 86 79 64 51 41 38 42 40 29 26 28 25 28 29 30 27 23 17 14 10 5 2 3 3 360 0 2 4 5 2 2 1 1 4 4 4 4 2 358
138 132 121 109 96 85 66 52 36 51 48 43 32 32 30 27 28 34 33 30 28 23 19 14 8 6 4 1 4 6 7 7 5 4 6 7 5 3 360 357 356 354 355
136 125 120 113 99 92 74 59 48 46 48 41 35 36 31 30 29 27 32 42 36 25 23 21 18 11 9 7 7 7 10 13 13 14 11 3 360 358 354 353 350 351 351
Height
867 867 867 868 868 870 872 873 872 871 868 864 862 861 860 859 858 857 854 852 850 848 845 843 840 837 833 829 825 821 819 816 813 809 804 798 795 793 793 792 791 789 788
870 871 872 875 874 872 874 874 874 872 868 866 864 864 863 863 861 859 856 853 851 848 846 843 840 836 832 828 824 821 817 815 813 810 805 800 797 794 792 790 790 788 787
870 874 874 877 875 874 876 877 875 872 870 869 868 867 866 864 862 860 857 854 852 849 846 843 839 835 831 827 823 820 817 814 812 810 810 805 802 798 790 790 787 787 785
879 874 877 878 877 878 879 878 876 873 872 872 871 869 868 866 865 862 859 856 852 849 845 842 837 834 830 826 822 819 817 814 811 809 808 808 805 803 792 786 785 785 783
880 877 879 879 879 880 880 879 877 876 876 875 874 872 871 869 866 863 859 856 852 848 844 840 836 832 828 825 821 818 815 812 810 808 805 803 800 798 796 787 781 781 779
879 880 880 880 881 881 880 880 879 879 879 878 876 874 872 869 866 862 858 855 851 847 843 839 835 831 827 823 820 816 813 810 807 804 802 799 797 792 791 785 780 776 774
880 880 880 882 882 881 882 882 882 882 881 880 878 875 873 870 866 863 859 854 850 846 841 837 833 829 825 821 817 813 810 806 803 800 796 792 788 786 784 782 777 774 769
880 881 883 883 882 883 883 883 884 884 883 881 879 877 874 871 867 863 859 855 850 845 840 835 831 827 822 818 814 810 806 803 800 795 790 785 781 780 778 775 773 768 766
881 883 884 884 884 885 885 885 886 885 884 882 880 878 874 871 867 863 859 854 849 843 838 833 828 824 819 815 811 807 804 800 795 789 783 779 775 773 771 769 768 765 761
882 885 884 885 886 886 887 887 887 886 885 883 881 878 875 871 867 863 857 852 847 842 836 830 825 821 816 812 808 805 801 795 789 783 778 774 770 767 765 763 762 761 758
882 884 886 887 888 888 889 889 888 887 886 884 882 878 875 871 867 862 857 851 846 840 834 828 823 818 813 810 807 802 796 790 784 779 774 769 766 763 760 758 757 755 754
883 886 888 889 890 890 891 891 890 888 887 885 882 879 876 872 867 862 856 851 845 839 833 827 822 817 813 809 804 799 792 786 780 774 770 766 762 759 756 753 751 749 748
885 888 890 891 891 892 891 892 891 890 888 886 883 880 876 872 868 862 856 850 844 838 833 827 822 817 812 807 802 796 789 782 777 772 767 762 758 754 751 748 745 743 741
887 890 892 892 893 893 893 893 893 891 890 887 884 881 877 873 868 862 856 849 844 838 832 827 822 816 810 805 800 793 786 779 774 768 763 758 754 750 746 743 740 738 737
889 891 893 894 895 894 895 895 894 893 891 888 885 882 878 874 869 863 856 851 844 838 833 827 821 815 809 804 798 791 783 777 770 765 760 755 751 746 742 738 734 732 730
888 891 894 895 897 896 897 897 896 895 892 889 886 883 879 875 870 864 858 852 845 839 833 827 821 815 809 804 797 789 781 774 767 761 756 751 746 741 737 731 727 724 722
890 893 895 898 898 898 899 899 898 896 893 890 887 883 879 875 870 865 859 853 846 840 834 828 821 815 808 803 795 787 779 772 766 760 754 748 743 737 730 724 718 713 711
892 896 898 899 899 900 901 900 899 896 894 891 888 884 880 876 872 866 860 854 848 841 835 828 822 816 809 802 794 785 777 770 764 758 753 746 740 733 727 719 711 706 703
894 897 899 900 902 903 903 901 899 898 896 892 889 885 881 877 873 867 862 856 849 842 836 830 823 816 810 803 795 785 777 770 763 757 751 745 738 731 724 716 709 702 698
897 899 901 902 904 904 904 902 901 899 897 893 890 886 883 879 874 869 863 858 851 845 837 831 825 819 811 804 796 787 778 771 763 756 750 744 738 730 722 715 708 702 696
899 901 903 904 906 906 905 903 901 900 898 895 892 888 884 880 876 871 865 860 853 845 839 833 826 820 814 806 798 789 781 773 765 758 750 743 737 729 721 715 708 702 695
902 903 904 906 907 908 906 904 902 901 899 896 893 889 886 882 877 872 867 861 854 848 841 835 828 822 816 809 800 792 784 776 768 760 753 745 737 728 721 715 708 701 695
903 905 906 908 909 909 908 906 905 903 900 898 895 891 888 883 879 874 869 864 857 852 847 840 833 826 819 811 803 795 787 778 769 763 755 746 737 729 721 714 708 702 697
905 907 908 909 910 910 909 908 907 905 902 899 896 893 889 886 881 877 872 868 862 857 852 846 840 834 826 817 809 800 791 783 773 764 756 748 741 732 725 716 709 704 699
907 909 909 911 911 911 911 910 908 906 904 901 899 895 892 888 884 880 876 872 869 865 860 854 848 840 832 826 818 808 798 790 781 770 760 750 740 734 727 720 714 707 701
908 910 911 912 913 913 913 912 910 908 906 903 901 898 895 892 887 883 879 876 873 869 865 859 853 846 840 831 821 812 804 796 785 774 767 759 751 743 736 728 719 711 704